Weather in Grobina

Latvia     56°32′07″N   21°09′48″E
В апреле 2022 года жителям России запретили посещать сайт meteo.paraplan.net по решению Генеральной прокуратуры. Аудитория сайта уменьшилась в 10 раз. Владельцы сайта не видят смысла в поддержке погодного сервера в таких условиях. Сайт будет закрыт в октябре.
temp.,
°C
wind,
m/s
gust,
m/s
humid.,
%
clouds,
%
prec.,
mm/h
press.,
hPa
HPBL,
m
3 october, mon
mon300:00+10se349699 1.3 1002151
03:00+9e51095100 3.8 1003451
06:00+8ne51288100 0.8 1006534
09:00+8nne4108735 0.8 1009517
12:00+12n6106754 0.0 10101173
15:00+13nnw71159100 0.0 10091545
18:00+11nnw71369100 0.0 10091142
21:00+11nnw7147374 0.0 10091058
4 october, tue
tue400:00+11nnw7147883 0.0 10091072
03:00+11nnw7137993 0.0 10081029
06:00+10nnw7137963 0.0 1008963
09:00+11nnw61274100 0.1 10091291
12:00+13nnw7117119 0.1 10101316
15:00+12nw71170100 0.3 10111214
18:00+12nw597319 0.0 1013942
21:00+9wnw38830 0.0 1014177
5 october, wed
wed500:00+9wsw238582 0.0 101563
03:00+11sw3988100 0.0 1014301
06:00+13wsw41094100 0.1 1013466
09:00+13sw61190100 0.1 1013706
12:00+15sw71281100 0.0 1013812
15:00+15sw71179100 0.0 1013778
18:00+14sw51085100 0.0 1013540
21:00+14sw61378100 0.0 1012641
6 october, thu
thu600:00+14sw6147399 0.0 1012660
03:00+14sw615795 0.0 1011559
06:00+14sw7148720 0.0 1010672
09:00+15w8138030 0.1 10121182
12:00+15w813680 0.1 10151246
15:00+14w914690 0.1 10171199
18:00+13w914760 0.0 10181100
21:00+13wsw814730 0.0 1020984
7 october, fri
fri700:00+13w814764 0.0 10201035
03:00+13w712771 0.0 10211027
06:00+12w612854 0.0 1021703
09:00+12wsw5108411 0.0 1021784
12:00+15wsw710731 0.1 1022997
15:00+15sw7117710 0.2 10211001
18:00+13sw6128697 0.1 1019854
21:00+13sw6147492 0.1 1018922